カタログに戻る

ONEWEB-0674

運用中通信PO
NORAD 55833·PAYLOAD·🇬🇧 United Kingdom

打ち上げ Mar 9, 2023 から Cape Canaveral Space Force Station

Loading…

次のパス (今後24時間)

TLE

最新Source: CelesTrak SupGP

元期: Sep 14, 2026, 09:53 UTC

1 55833C 23029AP  26257.41199491  .00002031  00000+0  54859-2 0  2575
2 55833  87.8899 271.9193 0002348  93.3653  12.6707 13.14500728    18

AllMySatでONEWEB-0674をリアルタイム追跡

Download on the App Store